Location: Hurecourt
(47.9030°N, 6.0653°E)
Time: 08:48:29
(UTC+00:00)

Cosmos 1733 Rocket - Pass Details

Date: 14 July 2020
Orbit: 604 x 627 km, 82.5° (Epoch: 14 August)

Event Time Altitude Azimuth Distance (km) Brightness Sun altitude
Exits shadow 03:06:39 - 233° (SW) 2,090 5.1 -6.7°
Reaches altitude 10° 03:07:05 10° 236° (SW) 1,952 5.0 -6.7°
Maximum altitude 03:10:34 24° 290° (WNW) 1,282 4.5 -6.2°
Drops below altitude 10° 03:14:05 10° 345° (NNW) 1,964 6.0 -5.8°
Sets 03:16:41 0° 359° (N) 2,875 7.1 -5.5°
